Time,TemperatureF,DewpointF,PressureIn,WindDirection,WindDirectionDegrees,WindSpeedMPH,WindSpeedGustMPH,Humidity,HourlyPrecipIn,Conditions,Clouds,dailyrainin,SoftwareType,DateUTC
2013-02-17 00:00:00,56.7,41.1,30.09,NW,315,7.8,7.8,56,0.00,CLR,,0.00,WeatherDisplay:10.37,2013-02-17 05:00:00,
2013-02-17 00:01:00,56.7,41.1,30.09,West,270,8.1,8.5,56,0.00,CLR,,0.00,WeatherDisplay:10.37,2013-02-17 05:01:00,
2013-02-17 00:06:00,56.5,41.0,30.09,NW,315,9.2,9.2,56,0.00,CLR,,0.00,WeatherDisplay:10.37,2013-02-17 05:06:00,
2013-02-17 00:11:00,56.5,41.4,30.09,NW,315,9.2,9.2,57,0.00,CLR,,0.00,WeatherDisplay:10.37,2013-02-17 05:11:00,
2013-02-17 00:17:00,56.5,41.0,30.09,NW,315,15.0,15.0,56,0.00,CLR,,0.00,WeatherDisplay:10.37,2013-02-17 05:17:00,
2013-02-17 00:22:00,56.3,40.8,30.09,NW,315,10.4,10.4,56,0.00,CLR,,0.00,WeatherDisplay:10.37,2013-02-17 05:22:00,
2013-02-17 00:27:00,56.3,41.3,30.09,North,0,9.2,9.2,57,0.00,CLR,,0.00,WeatherDisplay:10.37,2013-02-17 05:27:00,
2013-02-17 00:32:00,56.3,41.3,30.09,West,270,12.7,12.7,57,0.00,CLR,,0.00,WeatherDisplay:10.37,2013-02-17 05:32:00,
2013-02-17 00:37:00,56.1,40.6,30.09,NW,315,10.2,10.2,56,0.00,CLR,,0.00,WeatherDisplay:10.37,2013-02-17 05:37:00,
2013-02-17 00:42:00,56.1,40.6,30.09,NW,315,11.5,11.5,56,0.00,CLR,,0.00,WeatherDisplay:10.37,2013-02-17 05:42:00,
2013-02-17 00:47:00,55.9,40.5,30.09,NW,315,10.0,10.0,56,0.00,CLR,,0.00,WeatherDisplay:10.37,2013-02-17 05:47:00,
2013-02-17 00:52:00,55.9,40.5,30.09,NW,315,10.4,10.4,56,0.00,CLR,,0.00,WeatherDisplay:10.37,2013-02-17 05:52:00,
2013-02-17 00:58:00,55.9,40.5,30.09,WNW,292,7.6,7.6,56,0.00,CLR,,0.00,WeatherDisplay:10.37,2013-02-17 05:58:00,
2013-02-17 01:03:00,55.9,40.5,30.12,NW,315,8.5,8.5,56,0.00,CLR,,0.00,WeatherDisplay:10.37,2013-02-17 06:03:00,
2013-02-17 01:08:00,55.8,40.3,30.12,NW,315,8.1,8.1,56,0.00,CLR,,0.00,WeatherDisplay:10.37,2013-02-17 06:08:00,
2013-02-17 01:13:00,55.8,40.3,30.12,WNW,292,6.2,6.2,56,0.00,CLR,,0.00,WeatherDisplay:10.37,2013-02-17 06:13:00,
2013-02-17 01:18:00,55.8,40.3,30.12,NW,315,5.8,5.8,56,0.00,CLR,,0.00,WeatherDisplay:10.37,2013-02-17 06:18:00,
2013-02-17 01:23:00,55.8,40.3,30.12,West,270,4.9,4.9,56,0.00,CLR,,0.00,WeatherDisplay:10.37,2013-02-17 06:23:00,
2013-02-17 01:28:00,55.6,40.1,30.12,NW,315,8.1,8.1,56,0.00,CLR,,0.00,WeatherDisplay:10.37,2013-02-17 06:28:00,
2013-02-17 01:34:00,55.6,40.1,30.12,WNW,292,6.9,6.9,56,0.00,CLR,,0.00,WeatherDisplay:10.37,2013-02-17 06:34:00,
2013-02-17 01:39:00,55.4,40.0,30.12,NNW,338,8.1,8.1,56,0.00,CLR,,0.00,WeatherDisplay:10.37,2013-02-17 06:39:00,
2013-02-17 01:44:00,55.2,40.2,30.12,West,270,5.8,5.8,57,0.00,CLR,,0.00,WeatherDisplay:10.37,2013-02-17 06:44:00,
2013-02-17 01:49:00,55.2,40.2,30.09,NW,315,10.4,10.4,57,0.00,CLR,,0.00,WeatherDisplay:10.37,2013-02-17 06:49:00,
2013-02-17 01:54:00,55.0,39.6,30.09,NW,315,11.5,11.5,56,0.00,CLR,,0.00,WeatherDisplay:10.37,2013-02-17 06:54:00,
2013-02-17 01:59:00,55.0,39.6,30.09,NW,315,13.8,13.8,56,0.00,CLR,,0.00,WeatherDisplay:10.37,2013-02-17 06:59:00,
2013-02-17 02:05:00,54.9,39.5,30.12,NW,315,11.5,11.5,56,0.00,CLR,,0.00,WeatherDisplay:10.37,2013-02-17 07:05:00,
2013-02-17 02:10:00,55.0,39.6,30.12,West,270,12.7,12.7,56,0.00,CLR,,0.00,WeatherDisplay:10.37,2013-02-17 07:10:00,
2013-02-17 02:15:00,54.9,39.0,30.12,NNW,338,11.5,11.5,55,0.00,CLR,,0.00,WeatherDisplay:10.37,2013-02-17 07:15:00,
2013-02-17 02:20:00,54.9,39.0,30.09,WNW,292,10.4,10.4,55,0.00,CLR,,0.00,WeatherDisplay:10.37,2013-02-17 07:20:00,
2013-02-17 02:25:00,55.0,39.6,30.09,NW,315,10.4,10.4,56,0.00,CLR,,0.00,WeatherDisplay:10.37,2013-02-17 07:25:00,
2013-02-17 02:30:00,54.9,38.5,30.09,NW,315,13.8,13.8,54,0.00,CLR,,0.00,WeatherDisplay:10.37,2013-02-17 07:30:00,
2013-02-17 02:36:00,54.9,38.0,30.09,NNW,338,16.1,16.1,53,0.00,CLR,,0.00,WeatherDisplay:10.37,2013-02-17 07:36:00,
2013-02-17 02:41:00,54.9,37.1,30.09,NW,315,15.0,15.0,51,0.00,CLR,,0.00,WeatherDisplay:10.37,2013-02-17 07:41:00,
2013-02-17 02:46:00,54.9,36.6,30.09,WNW,292,19.6,19.6,50,0.00,CLR,,0.00,WeatherDisplay:10.37,2013-02-17 07:46:00,
2013-02-17 02:51:00,54.9,36.0,30.09,West,270,12.7,12.7,49,0.00,CLR,,0.00,WeatherDisplay:10.37,2013-02-17 07:51:00,
2013-02-17 02:56:00,54.7,35.9,30.09,NW,315,17.3,17.3,49,0.00,CLR,,0.00,WeatherDisplay:10.37,2013-02-17 07:56:00,
2013-02-17 03:01:00,54.7,35.9,30.09,NW,315,14.7,14.7,49,0.00,CLR,,0.00,WeatherDisplay:10.37,2013-02-17 08:01:00,
2013-02-17 03:07:00,54.5,35.7,30.09,North,0,15.2,15.2,49,0.00,CLR,,0.00,WeatherDisplay:10.37,2013-02-17 08:07:00,
2013-02-17 03:12:00,54.3,35.0,30.09,WNW,292,17.3,17.3,48,0.00,CLR,,0.00,WeatherDisplay:10.37,2013-02-17 08:12:00,
2013-02-17 03:17:00,54.0,34.2,30.09,North,0,12.7,12.7,47,0.00,CLR,,0.00,WeatherDisplay:10.37,2013-02-17 08:17:00,
2013-02-17 03:22:00,53.8,34.0,30.09,NNW,338,15.0,15.0,47,0.00,CLR,,0.00,WeatherDisplay:10.37,2013-02-17 08:22:00,
2013-02-17 03:27:00,53.8,34.5,30.09,NW,315,14.3,14.3,48,0.00,CLR,,0.00,WeatherDisplay:10.37,2013-02-17 08:27:00,
2013-02-17 03:32:00,53.2,34.6,30.12,NW,315,16.1,16.1,49,0.00,CLR,,0.00,WeatherDisplay:10.37,2013-02-17 08:32:00,
2013-02-17 03:37:00,53.1,34.4,30.12,North,0,12.7,12.7,49,0.00,CLR,,0.00,WeatherDisplay:10.37,2013-02-17 08:37:00,
2013-02-17 03:42:00,52.9,34.2,30.12,NNW,338,12.7,12.7,49,0.00,CLR,,0.00,WeatherDisplay:10.37,2013-02-17 08:42:00,
2013-02-17 03:48:00,52.5,33.4,30.12,NW,315,12.7,12.7,48,0.00,CLR,,0.00,WeatherDisplay:10.37,2013-02-17 08:48:00,
2013-02-17 03:53:00,52.3,33.7,30.12,NW,315,12.7,12.7,49,0.00,CLR,,0.00,WeatherDisplay:10.37,2013-02-17 08:53:00,
2013-02-17 03:58:00,52.2,33.6,30.12,NW,315,8.1,8.1,49,0.00,CLR,,0.00,WeatherDisplay:10.37,2013-02-17 08:58:00,
2013-02-17 04:03:00,52.2,34.1,30.12,West,270,9.7,9.7,50,0.00,CLR,,0.00,WeatherDisplay:10.37,2013-02-17 09:03:00,
2013-02-17 04:08:00,52.0,33.9,30.12,West,270,11.8,11.8,50,0.00,CLR,,0.00,WeatherDisplay:10.37,2013-02-17 09:08:00,
2013-02-17 04:13:00,51.6,33.6,30.12,North,0,15.0,15.0,50,0.00,CLR,,0.00,WeatherDisplay:10.37,2013-02-17 09:13:00,
2013-02-17 04:19:00,51.6,33.6,30.15,NW,315,12.3,12.3,50,0.00,CLR,,0.00,WeatherDisplay:10.37,2013-02-17 09:19:00,
2013-02-17 04:24:00,51.3,33.2,30.15,North,0,10.4,10.4,50,0.00,CLR,,0.00,WeatherDisplay:10.37,2013-02-17 09:24:00,
2013-02-17 04:29:00,51.1,32.6,30.15,NNW,338,13.2,13.2,49,0.00,CLR,,0.00,WeatherDisplay:10.37,2013-02-17 09:29:00,
2013-02-17 04:34:00,51.1,33.1,30.15,NW,315,8.1,8.1,50,0.00,CLR,,0.00,WeatherDisplay:10.37,2013-02-17 09:34:00,
2013-02-17 04:39:00,50.9,32.9,30.15,North,0,12.8,12.8,50,0.00,CLR,,0.00,WeatherDisplay:10.37,2013-02-17 09:39:00,
2013-02-17 04:44:00,50.7,32.2,30.15,North,0,13.5,13.5,49,0.00,CLR,,0.00,WeatherDisplay:10.37,2013-02-17 09:44:00,
2013-02-17 04:49:00,50.5,32.1,30.15,West,270,10.4,10.4,49,0.00,CLR,,0.00,WeatherDisplay:10.37,2013-02-17 09:49:00,
2013-02-17 04:54:00,50.4,31.4,30.15,North,0,13.8,13.8,48,0.00,CLR,,0.00,WeatherDisplay:10.37,2013-02-17 09:54:00,
2013-02-17 04:59:00,50.4,31.9,30.15,WNW,292,10.4,10.4,49,0.00,CLR,,0.00,WeatherDisplay:10.37,2013-02-17 09:59:00,
2013-02-17 05:05:00,50.2,31.2,30.15,West,270,13.8,13.8,48,0.00,CLR,,0.00,WeatherDisplay:10.37,2013-02-17 10:05:00,
2013-02-17 05:10:00,50.0,31.1,30.15,NNW,338,12.7,12.7,48,0.00,CLR,,0.00,WeatherDisplay:10.37,2013-02-17 10:10:00,
2013-02-17 05:15:00,49.8,30.9,30.15,NW,315,15.0,15.0,48,0.00,CLR,,0.00,WeatherDisplay:10.37,2013-02-17 10:15:00,
2013-02-17 05:20:00,49.8,30.9,30.18,NNW,338,6.4,6.4,48,0.00,CLR,,0.00,WeatherDisplay:10.37,2013-02-17 10:20:00,
2013-02-17 05:26:00,49.8,30.9,30.18,WNW,292,15.2,15.2,48,0.00,CLR,,0.00,WeatherDisplay:10.37,2013-02-17 10:26:00,
2013-02-17 05:31:00,49.6,30.2,30.18,NW,323,8.0,15.0,47,0.00,CLR,,0.00,WeatherDisplay:10.37,2013-02-17 10:31:00,
2013-02-17 05:36:00,49.6,30.7,30.18,North,0,10.4,10.4,48,0.00,CLR,,0.00,WeatherDisplay:10.37,2013-02-17 10:36:00,
2013-02-17 05:41:00,49.5,29.5,30.18,NW,315,12.7,12.7,46,0.00,CLR,,0.00,WeatherDisplay:10.37,2013-02-17 10:41:00,
2013-02-17 05:46:00,48.9,27.4,30.18,WNW,292,12.7,12.7,43,0.00,CLR,,0.00,WeatherDisplay:10.37,2013-02-17 10:46:00,
2013-02-17 05:51:00,48.7,26.1,30.18,North,0,11.5,11.5,41,0.00,CLR,,0.00,WeatherDisplay:10.37,2013-02-17 10:51:00,
2013-02-17 05:56:00,48.7,26.1,30.18,NNW,338,10.2,10.2,41,0.00,CLR,,0.00,WeatherDisplay:10.37,2013-02-17 10:56:00,
2013-02-17 06:02:00,48.4,24.5,30.18,NW,315,15.0,15.0,39,0.00,CLR,,0.00,WeatherDisplay:10.37,2013-02-17 11:02:00,
2013-02-17 06:07:00,48.4,24.5,30.18,WNW,292,9.8,9.8,39,0.00,CLR,,0.00,WeatherDisplay:10.37,2013-02-17 11:07:00,
2013-02-17 06:12:00,48.2,23.7,30.18,West,270,10.9,10.9,38,0.00,CLR,,0.00,WeatherDisplay:10.37,2013-02-17 11:12:00,
2013-02-17 06:17:00,48.0,23.6,30.21,NW,315,12.7,12.7,38,0.00,CLR,,0.00,WeatherDisplay:10.37,2013-02-17 11:17:00,
2013-02-17 06:23:00,47.8,23.4,30.21,NNW,338,11.8,11.8,38,0.00,CLR,,0.00,WeatherDisplay:10.37,2013-02-17 11:23:00,
2013-02-17 06:28:00,47.8,23.4,30.21,NW,315,9.2,9.2,38,0.00,CLR,,0.00,WeatherDisplay:10.37,2013-02-17 11:28:00,
2013-02-17 06:33:00,47.7,23.3,30.21,WNW,292,12.7,12.7,38,0.00,CLR,,0.00,WeatherDisplay:10.37,2013-02-17 11:33:00,
2013-02-17 06:38:00,47.8,23.4,30.21,North,0,10.4,10.4,38,0.00,CLR,,0.00,WeatherDisplay:10.37,2013-02-17 11:38:00,
2013-02-17 06:43:00,47.5,23.1,30.21,NNE,22,13.8,13.8,38,0.00,CLR,,0.00,WeatherDisplay:10.37,2013-02-17 11:43:00,
2013-02-17 06:48:00,47.5,23.1,30.21,NNW,338,15.0,15.0,38,0.00,CLR,,0.00,WeatherDisplay:10.37,2013-02-17 11:48:00,
2013-02-17 06:53:00,47.3,22.9,30.21,NW,315,11.5,11.5,38,0.00,CLR,,0.00,WeatherDisplay:10.37,2013-02-17 11:53:00,
2013-02-17 06:59:00,47.3,22.9,30.21,NW,315,9.8,9.8,38,0.00,CLR,,0.00,WeatherDisplay:10.37,2013-02-17 11:59:00,
2013-02-17 07:04:00,47.1,22.8,30.24,North,0,11.2,11.2,38,0.00,CLR,,0.00,WeatherDisplay:10.37,2013-02-17 12:04:00,
2013-02-17 07:09:00,46.9,22.6,30.24,NW,315,11.5,11.5,38,0.00,CLR,,0.00,WeatherDisplay:10.37,2013-02-17 12:09:00,
2013-02-17 07:14:00,46.9,22.6,30.24,North,0,11.5,11.5,38,0.00,CLR,,0.00,WeatherDisplay:10.37,2013-02-17 12:14:00,
2013-02-17 07:19:00,46.9,22.6,30.21,North,0,12.3,12.3,38,0.00,CLR,,0.00,WeatherDisplay:10.37,2013-02-17 12:19:00,
2013-02-17 07:24:00,46.8,22.5,30.21,NW,315,10.2,10.2,38,0.00,CLR,,0.00,WeatherDisplay:10.37,2013-02-17 12:24:00,
2013-02-17 07:29:00,46.9,22.6,30.21,WNW,292,11.5,11.5,38,0.00,CLR,,0.00,WeatherDisplay:10.37,2013-02-17 12:29:00,
2013-02-17 07:34:00,46.9,22.6,30.21,NW,315,10.4,10.4,38,0.00,CLR,,0.00,WeatherDisplay:10.37,2013-02-17 12:34:00,
2013-02-17 07:40:00,46.9,22.6,30.21,NW,315,10.2,10.2,38,0.00,CLR,,0.00,WeatherDisplay:10.37,2013-02-17 12:40:00,
2013-02-17 07:45:00,46.9,22.6,30.21,NNW,338,11.8,11.8,38,0.00,CLR,,0.00,WeatherDisplay:10.37,2013-02-17 12:45:00,
2013-02-17 07:50:00,46.9,22.6,30.21,NNE,22,15.0,15.0,38,0.00,CLR,,0.00,WeatherDisplay:10.37,2013-02-17 12:50:00,
2013-02-17 07:55:00,46.9,22.0,30.21,WNW,292,15.0,15.0,37,0.00,CLR,,0.00,WeatherDisplay:10.37,2013-02-17 12:55:00,
2013-02-17 08:00:00,46.8,21.8,30.21,NW,315,10.4,10.4,37,0.00,CLR,,0.00,WeatherDisplay:10.37,2013-02-17 13:00:00,
2013-02-17 08:05:00,46.9,22.0,30.24,NW,315,11.8,11.8,37,0.00,CLR,,0.00,WeatherDisplay:10.37,2013-02-17 13:05:00,
2013-02-17 08:10:00,46.9,22.0,30.24,NW,315,10.4,10.4,37,0.00,CLR,,0.00,WeatherDisplay:10.37,2013-02-17 13:10:00,
2013-02-17 08:15:00,46.8,20.5,30.24,WNW,292,16.1,16.1,35,0.00,CLR,,0.00,WeatherDisplay:10.37,2013-02-17 13:15:00,
2013-02-17 08:20:00,46.8,19.8,30.27,North,0,16.1,16.1,34,0.00,CLR,,0.00,WeatherDisplay:10.37,2013-02-17 13:20:00,
2013-02-17 08:25:00,47.1,20.2,30.27,NNW,338,15.0,15.0,34,0.00,CLR,,0.00,WeatherDisplay:10.37,2013-02-17 13:25:00,
2013-02-17 08:30:00,46.9,20.0,30.27,North,0,16.1,16.1,34,0.00,CLR,,0.00,WeatherDisplay:10.37,2013-02-17 13:30:00,
2013-02-17 08:36:00,47.3,21.0,30.27,NNW,338,12.7,12.7,35,0.00,CLR,,0.00,WeatherDisplay:10.37,2013-02-17 13:36:00,
2013-02-17 08:41:00,47.3,20.3,30.27,North,0,13.2,13.2,34,0.00,CLR,,0.00,WeatherDisplay:10.37,2013-02-17 13:41:00,
2013-02-17 08:46:00,47.5,20.5,30.27,North,0,11.5,11.5,34,0.00,CLR,,0.00,WeatherDisplay:10.37,2013-02-17 13:46:00,
2013-02-17 08:51:00,47.8,22.1,30.27,NW,315,12.7,12.7,36,0.00,CLR,,0.00,WeatherDisplay:10.37,2013-02-17 13:51:00,
2013-02-17 08:57:00,47.7,19.9,30.27,NNW,338,13.8,13.8,33,0.00,CLR,,0.00,WeatherDisplay:10.37,2013-02-17 13:57:00,
2013-02-17 09:02:00,47.8,20.1,30.27,NW,315,13.0,13.0,33,0.00,CLR,,0.00,WeatherDisplay:10.37,2013-02-17 14:02:00,
2013-02-17 09:07:00,48.0,20.2,30.27,NW,315,12.7,12.7,33,0.00,CLR,,0.00,WeatherDisplay:10.37,2013-02-17 14:07:00,
2013-02-17 09:12:00,48.0,19.5,30.27,NNW,338,17.5,17.5,32,0.00,CLR,,0.00,WeatherDisplay:10.37,2013-02-17 14:12:00,
2013-02-17 09:17:00,48.0,18.8,30.27,NW,315,18.4,18.4,31,0.00,CLR,,0.00,WeatherDisplay:10.37,2013-02-17 14:17:00,
2013-02-17 09:22:00,48.0,18.8,30.27,NW,315,16.1,16.1,31,0.00,CLR,,0.00,WeatherDisplay:10.37,2013-02-17 14:22:00,
2013-02-17 09:28:00,48.2,18.2,30.27,WNW,292,15.0,15.0,30,0.00,CLR,,0.00,WeatherDisplay:10.37,2013-02-17 14:28:00,
2013-02-17 09:33:00,48.4,19.1,30.27,NW,315,17.3,17.3,31,0.00,CLR,,0.00,WeatherDisplay:10.37,2013-02-17 14:33:00,
2013-02-17 09:38:00,48.4,18.3,30.27,NW,315,17.3,17.3,30,0.00,CLR,,0.00,WeatherDisplay:10.37,2013-02-17 14:38:00,
2013-02-17 09:43:00,48.9,19.6,30.27,North,0,12.7,12.7,31,0.00,CLR,,0.00,WeatherDisplay:10.37,2013-02-17 14:43:00,
2013-02-17 09:48:00,49.1,19.7,30.27,WNW,292,8.5,8.5,31,0.00,CLR,,0.00,WeatherDisplay:10.37,2013-02-17 14:48:00,
2013-02-17 09:54:00,49.1,19.0,30.27,West,270,15.0,15.0,30,0.00,CLR,,0.00,WeatherDisplay:10.37,2013-02-17 14:54:00,
2013-02-17 09:59:00,48.9,18.0,30.27,North,0,17.3,17.3,29,0.00,CLR,,0.00,WeatherDisplay:10.37,2013-02-17 14:59:00,
2013-02-17 10:04:00,49.1,17.3,30.30,NNW,338,18.4,18.4,28,0.00,CLR,,0.00,WeatherDisplay:10.37,2013-02-17 15:04:00,
2013-02-17 10:09:00,49.5,18.5,30.30,North,0,10.7,10.7,29,0.00,CLR,,0.00,WeatherDisplay:10.37,2013-02-17 15:09:00,
2013-02-17 10:15:00,49.6,19.4,30.30,NW,315,13.2,13.2,30,0.00,CLR,,0.00,WeatherDisplay:10.37,2013-02-17 15:15:00,
2013-02-17 10:20:00,49.6,18.6,30.30,North,0,11.8,11.8,29,0.00,CLR,,0.00,WeatherDisplay:10.37,2013-02-17 15:20:00,
2013-02-17 10:25:00,50.0,18.9,30.30,North,0,13.8,13.8,29,0.00,CLR,,0.00,WeatherDisplay:10.37,2013-02-17 15:25:00,
2013-02-17 10:30:00,49.8,18.0,30.30,North,0,15.0,15.0,28,0.00,CLR,,0.00,WeatherDisplay:10.37,2013-02-17 15:30:00,
2013-02-17 10:35:00,50.1,18.2,30.30,NW,319,9.0,14.0,28,0.00,CLR,,0.00,WeatherDisplay:10.37,2013-02-17 15:35:00,
2013-02-17 10:40:00,50.5,18.6,30.30,NNW,338,16.1,16.1,28,0.00,CLR,,0.00,WeatherDisplay:10.37,2013-02-17 15:40:00,
2013-02-17 10:45:00,50.7,18.8,30.30,North,358,9.0,16.0,28,0.00,CLR,,0.00,WeatherDisplay:10.37,2013-02-17 15:45:00,
2013-02-17 10:50:00,50.5,18.6,30.30,West,270,15.0,15.0,28,0.00,CLR,,0.00,WeatherDisplay:10.37,2013-02-17 15:50:00,
2013-02-17 10:55:00,50.7,18.8,30.30,WNW,292,12.7,12.7,28,0.00,CLR,,0.00,WeatherDisplay:10.37,2013-02-17 15:55:00,
2013-02-17 11:00:00,50.9,18.9,30.30,WNW,292,12.7,12.7,28,0.00,CLR,,0.00,WeatherDisplay:10.37,2013-02-17 16:00:00,
2013-02-17 11:05:00,50.9,18.1,30.30,NW,315,15.0,15.0,27,0.00,CLR,,0.00,WeatherDisplay:10.37,2013-02-17 16:05:00,
2013-02-17 11:11:00,50.9,18.1,30.30,NW,315,12.7,12.7,27,0.00,CLR,,0.00,WeatherDisplay:10.37,2013-02-17 16:11:00,
2013-02-17 11:16:00,50.9,18.1,30.30,NW,315,11.5,11.5,27,0.00,CLR,,0.00,WeatherDisplay:10.37,2013-02-17 16:16:00,
2013-02-17 11:21:00,51.3,18.4,30.30,WNW,292,12.1,12.1,27,0.00,CLR,,0.00,WeatherDisplay:10.37,2013-02-17 16:21:00,
2013-02-17 11:26:00,51.4,18.5,30.30,North,0,17.3,17.3,27,0.00,CLR,,0.00,WeatherDisplay:10.37,2013-02-17 16:26:00,
2013-02-17 11:32:00,51.6,18.7,30.30,NW,315,16.3,16.3,27,0.00,CLR,,0.00,WeatherDisplay:10.37,2013-02-17 16:32:00,
2013-02-17 11:37:00,51.6,18.7,30.30,NW,315,12.7,12.7,27,0.00,CLR,,0.00,WeatherDisplay:10.37,2013-02-17 16:37:00,
2013-02-17 11:42:00,52.2,19.1,30.30,West,270,11.5,11.5,27,0.00,CLR,,0.00,WeatherDisplay:10.37,2013-02-17 16:42:00,
2013-02-17 11:47:00,52.5,19.5,30.30,North,0,12.1,12.1,27,0.00,CLR,,0.00,WeatherDisplay:10.37,2013-02-17 16:47:00,
2013-02-17 11:52:00,52.3,19.3,30.30,North,0,9.2,9.2,27,0.00,CLR,,0.00,WeatherDisplay:10.37,2013-02-17 16:52:00,
2013-02-17 11:58:00,52.5,19.5,30.30,NW,315,12.7,12.7,27,0.00,CLR,,0.00,WeatherDisplay:10.37,2013-02-17 16:58:00,
2013-02-17 12:03:00,52.5,19.5,30.30,North,0,9.2,9.2,27,0.00,CLR,,0.00,WeatherDisplay:10.37,2013-02-17 17:03:00,
2013-02-17 12:08:00,53.2,20.9,30.30,NW,315,12.7,12.7,28,0.00,CLR,,0.00,WeatherDisplay:10.37,2013-02-17 17:08:00,
2013-02-17 12:13:00,53.1,19.9,30.30,NW,315,11.5,11.5,27,0.00,CLR,,0.00,WeatherDisplay:10.37,2013-02-17 17:13:00,
2013-02-17 12:18:00,53.2,20.1,30.27,NW,315,10.0,10.0,27,0.00,CLR,,0.00,WeatherDisplay:10.37,2013-02-17 17:18:00,
2013-02-17 12:23:00,53.8,20.5,30.27,North,0,10.4,10.4,27,0.00,CLR,,0.00,WeatherDisplay:10.37,2013-02-17 17:23:00,
2013-02-17 12:29:00,53.6,19.5,30.27,NNW,338,12.7,12.7,26,0.00,CLR,,0.00,WeatherDisplay:10.37,2013-02-17 17:29:00,
2013-02-17 12:34:00,54.0,20.7,30.30,NW,315,8.1,8.1,27,0.00,CLR,,0.00,WeatherDisplay:10.37,2013-02-17 17:34:00,
2013-02-17 12:39:00,53.6,19.5,30.30,WNW,292,9.2,9.2,26,0.00,CLR,,0.00,WeatherDisplay:10.37,2013-02-17 17:39:00,
2013-02-17 12:44:00,53.6,19.5,30.30,North,0,10.0,10.0,26,0.00,CLR,,0.00,WeatherDisplay:10.37,2013-02-17 17:44:00,
2013-02-17 12:49:00,53.6,19.5,30.30,WNW,292,12.5,12.5,26,0.00,CLR,,0.00,WeatherDisplay:10.37,2013-02-17 17:49:00,
2013-02-17 12:54:00,54.0,19.8,30.30,North,0,11.5,11.5,26,0.00,CLR,,0.00,WeatherDisplay:10.37,2013-02-17 17:54:00,
2013-02-17 13:00:00,54.3,21.0,30.30,NW,315,8.1,8.1,27,0.00,CLR,,0.00,WeatherDisplay:10.37,2013-02-17 18:00:00,
2013-02-17 13:05:00,54.1,20.0,30.30,NW,315,11.5,11.5,26,0.00,CLR,,0.00,WeatherDisplay:10.37,2013-02-17 18:05:00,
2013-02-17 13:10:00,54.3,20.1,30.30,NNW,338,8.5,8.5,26,0.00,CLR,,0.00,WeatherDisplay:10.37,2013-02-17 18:10:00,
2013-02-17 13:15:00,54.5,21.2,30.30,NW,315,12.7,12.7,27,0.00,CLR,,0.00,WeatherDisplay:10.37,2013-02-17 18:15:00,
2013-02-17 13:20:00,54.5,21.2,30.27,West,270,9.8,9.8,27,0.00,CLR,,0.00,WeatherDisplay:10.37,2013-02-17 18:20:00,
2013-02-17 13:26:00,54.7,20.4,30.27,West,270,15.0,15.0,26,0.00,CLR,,0.00,WeatherDisplay:10.37,2013-02-17 18:26:00,
2013-02-17 13:31:00,54.5,20.3,30.27,WNW,292,10.4,10.4,26,0.00,CLR,,0.00,WeatherDisplay:10.37,2013-02-17 18:31:00,
2013-02-17 13:36:00,55.0,20.7,30.27,North,0,12.7,12.7,26,0.00,CLR,,0.00,WeatherDisplay:10.37,2013-02-17 18:36:00,
2013-02-17 13:41:00,54.9,20.6,30.27,North,0,8.1,8.1,26,0.00,CLR,,0.00,WeatherDisplay:10.37,2013-02-17 18:41:00,
2013-02-17 13:46:00,55.4,21.0,30.24,NW,315,10.4,10.4,26,0.00,CLR,,0.00,WeatherDisplay:10.37,2013-02-17 18:46:00,
2013-02-17 13:51:00,55.4,20.1,30.24,WNW,292,10.4,10.4,25,0.00,CLR,,0.00,WeatherDisplay:10.37,2013-02-17 18:51:00,
2013-02-17 13:56:00,55.6,21.2,30.24,North,0,10.4,10.4,26,0.00,CLR,,0.00,WeatherDisplay:10.37,2013-02-17 18:56:00,
2013-02-17 14:02:00,55.9,21.5,30.24,NW,315,10.2,10.2,26,0.00,CLR,,0.00,WeatherDisplay:10.37,2013-02-17 19:02:00,
2013-02-17 14:07:00,55.9,21.5,30.24,WNW,292,12.7,12.7,26,0.00,CLR,,0.00,WeatherDisplay:10.37,2013-02-17 19:07:00,
2013-02-17 14:12:00,56.3,21.8,30.24,NW,315,8.1,8.1,26,0.00,CLR,,0.00,WeatherDisplay:10.37,2013-02-17 19:12:00,
2013-02-17 14:17:00,56.3,21.8,30.27,WNW,292,8.1,8.1,26,0.00,CLR,,0.00,WeatherDisplay:10.37,2013-02-17 19:17:00,
2013-02-17 14:22:00,56.7,22.1,30.27,North,0,8.1,8.1,26,0.00,CLR,,0.00,WeatherDisplay:10.37,2013-02-17 19:22:00,
2013-02-17 14:27:00,57.0,23.3,30.27,NNW,338,7.6,7.6,27,0.00,CLR,,0.00,WeatherDisplay:10.37,2013-02-17 19:27:00,
2013-02-17 14:32:00,56.8,22.3,30.27,WNW,292,15.0,15.0,26,0.00,CLR,,0.00,WeatherDisplay:10.37,2013-02-17 19:32:00,
2013-02-17 14:38:00,56.8,22.3,30.27,West,270,8.1,8.1,26,0.00,CLR,,0.00,WeatherDisplay:10.37,2013-02-17 19:38:00,
2013-02-17 14:43:00,57.2,22.6,30.27,NW,315,6.4,6.4,26,0.00,CLR,,0.00,WeatherDisplay:10.37,2013-02-17 19:43:00,
2013-02-17 14:48:00,57.4,21.8,30.27,NW,315,13.0,13.0,25,0.00,CLR,,0.00,WeatherDisplay:10.37,2013-02-17 19:48:00,
2013-02-17 14:53:00,57.0,22.4,30.27,NW,315,11.5,11.5,26,0.00,CLR,,0.00,WeatherDisplay:10.37,2013-02-17 19:53:00,
2013-02-17 14:58:00,57.6,22.9,30.27,NW,315,10.4,10.4,26,0.00,CLR,,0.00,WeatherDisplay:10.37,2013-02-17 19:58:00,
2013-02-17 15:03:00,58.5,23.7,30.27,North,0,9.2,9.2,26,0.00,CLR,,0.00,WeatherDisplay:10.37,2013-02-17 20:03:00,
2013-02-17 15:08:00,58.5,23.7,30.27,NW,315,6.9,6.9,26,0.00,CLR,,0.00,WeatherDisplay:10.37,2013-02-17 20:08:00,
2013-02-17 15:13:00,58.6,23.8,30.27,North,0,5.9,5.9,26,0.00,CLR,,0.00,WeatherDisplay:10.37,2013-02-17 20:13:00,
2013-02-17 15:18:00,58.3,22.6,30.27,NW,315,8.1,8.1,25,0.00,CLR,,0.00,WeatherDisplay:10.37,2013-02-17 20:18:00,
2013-02-17 15:23:00,58.3,23.5,30.27,NE,45,10.4,10.4,26,0.00,CLR,,0.00,WeatherDisplay:10.37,2013-02-17 20:23:00,
2013-02-17 15:29:00,58.8,24.0,30.27,NW,315,4.0,4.0,26,0.00,CLR,,0.00,WeatherDisplay:10.37,2013-02-17 20:29:00,
2013-02-17 15:34:00,59.2,23.3,30.27,NE,45,5.8,5.8,25,0.00,CLR,,0.00,WeatherDisplay:10.37,2013-02-17 20:34:00,
2013-02-17 15:39:00,59.2,23.3,30.27,WNW,292,5.8,5.8,25,0.00,CLR,,0.00,WeatherDisplay:10.37,2013-02-17 20:39:00,
2013-02-17 15:44:00,59.4,23.5,30.27,North,0,5.8,5.8,25,0.00,CLR,,0.00,WeatherDisplay:10.37,2013-02-17 20:44:00,
2013-02-17 15:49:00,59.5,23.6,30.27,NW,315,9.8,9.8,25,0.00,CLR,,0.00,WeatherDisplay:10.37,2013-02-17 20:49:00,
2013-02-17 15:54:00,59.9,23.9,30.27,North,0,5.8,5.8,25,0.00,CLR,,0.00,WeatherDisplay:10.37,2013-02-17 20:54:00,
2013-02-17 16:00:00,60.1,24.1,30.27,NE,45,4.6,4.6,25,0.00,CLR,,0.00,WeatherDisplay:10.37,2013-02-17 21:00:00,
2013-02-17 16:05:00,59.9,23.9,30.27,North,0,6.9,6.9,25,0.00,CLR,,0.00,WeatherDisplay:10.37,2013-02-17 21:05:00,
2013-02-17 16:10:00,60.3,24.3,30.27,North,0,5.8,5.8,25,0.00,CLR,,0.00,WeatherDisplay:10.37,2013-02-17 21:10:00,
2013-02-17 16:15:00,60.6,25.5,30.27,North,0,5.8,5.8,26,0.00,CLR,,0.00,WeatherDisplay:10.37,2013-02-17 21:15:00,
2013-02-17 16:20:00,60.4,25.4,30.24,North,0,6.9,6.9,26,0.00,CLR,,0.00,WeatherDisplay:10.37,2013-02-17 21:20:00,
2013-02-17 16:25:00,60.6,27.3,30.24,NE,45,6.9,6.9,28,0.00,CLR,,0.00,WeatherDisplay:10.37,2013-02-17 21:25:00,
2013-02-17 16:30:00,60.3,26.1,30.24,North,0,10.4,10.4,27,0.00,CLR,,0.00,WeatherDisplay:10.37,2013-02-17 21:30:00,
2013-02-17 16:35:00,60.6,25.5,30.27,East,90,6.9,6.9,26,0.00,CLR,,0.00,WeatherDisplay:10.37,2013-02-17 21:35:00,
2013-02-17 16:40:00,60.8,25.7,30.27,North,10,5.0,10.0,26,0.00,CLR,,0.00,WeatherDisplay:10.37,2013-02-17 21:40:00,
2013-02-17 16:45:00,60.4,27.1,30.27,North,0,6.9,6.9,28,0.00,CLR,,0.00,WeatherDisplay:10.37,2013-02-17 21:45:00,
2013-02-17 16:50:00,60.6,27.3,30.30,NE,45,11.5,11.5,28,0.00,CLR,,0.00,WeatherDisplay:10.37,2013-02-17 21:50:00,
2013-02-17 16:56:00,60.4,27.1,30.30,West,270,8.1,8.1,28,0.00,CLR,,0.00,WeatherDisplay:10.37,2013-02-17 21:56:00,
2013-02-17 17:01:00,60.4,27.1,30.30,NE,45,5.8,5.8,28,0.00,CLR,,0.00,WeatherDisplay:10.37,2013-02-17 22:01:00,
2013-02-17 17:06:00,60.4,27.1,30.27,North,0,9.2,9.2,28,0.00,CLR,,0.00,WeatherDisplay:10.37,2013-02-17 22:06:00,
2013-02-17 17:11:00,60.6,27.3,30.27,North,0,4.6,4.6,28,0.00,CLR,,0.00,WeatherDisplay:10.37,2013-02-17 22:11:00,
2013-02-17 17:16:00,60.6,27.3,30.30,NE,45,6.9,6.9,28,0.00,CLR,,0.00,WeatherDisplay:10.37,2013-02-17 22:16:00,
2013-02-17 17:21:00,60.1,26.8,30.30,NNE,22,9.2,9.2,28,0.00,CLR,,0.00,WeatherDisplay:10.37,2013-02-17 22:21:00,
2013-02-17 17:26:00,59.7,27.4,30.30,North,0,5.8,5.8,29,0.00,CLR,,0.00,WeatherDisplay:10.37,2013-02-17 22:26:00,
2013-02-17 17:32:00,59.5,27.2,30.30,North,0,4.6,4.6,29,0.00,CLR,,0.00,WeatherDisplay:10.37,2013-02-17 22:32:00,
2013-02-17 17:37:00,59.0,27.6,30.30,North,0,9.2,9.2,30,0.00,CLR,,0.00,WeatherDisplay:10.37,2013-02-17 22:37:00,
2013-02-17 17:42:00,58.8,26.6,30.30,North,0,10.4,10.4,29,0.00,CLR,,0.00,WeatherDisplay:10.37,2013-02-17 22:42:00,
2013-02-17 17:47:00,58.8,27.4,30.30,NNE,22,5.9,5.9,30,0.00,CLR,,0.00,WeatherDisplay:10.37,2013-02-17 22:47:00,
2013-02-17 17:52:00,58.5,26.3,30.30,North,0,8.1,8.1,29,0.00,CLR,,0.00,WeatherDisplay:10.37,2013-02-17 22:52:00,
2013-02-17 17:57:00,57.9,26.6,30.30,North,0,5.8,5.8,30,0.00,CLR,,0.00,WeatherDisplay:10.37,2013-02-17 22:57:00,
2013-02-17 18:02:00,57.4,26.2,30.30,North,0,6.9,6.9,30,0.00,CLR,,0.00,WeatherDisplay:10.37,2013-02-17 23:02:00,
2013-02-17 18:07:00,56.8,25.7,30.30,East,90,5.8,5.8,30,0.00,CLR,,0.00,WeatherDisplay:10.37,2013-02-17 23:07:00,
2013-02-17 18:13:00,56.7,26.3,30.30,North,0,5.8,5.8,31,0.00,CLR,,0.00,WeatherDisplay:10.37,2013-02-17 23:13:00,
2013-02-17 18:18:00,56.5,26.2,30.30,West,270,6.9,6.9,31,0.00,CLR,,0.00,WeatherDisplay:10.37,2013-02-17 23:18:00,
2013-02-17 18:23:00,56.1,27.4,30.30,NW,315,8.1,8.1,33,0.00,CLR,,0.00,WeatherDisplay:10.37,2013-02-17 23:23:00,
2013-02-17 18:28:00,56.1,27.4,30.30,North,0,4.6,4.6,33,0.00,CLR,,0.00,WeatherDisplay:10.37,2013-02-17 23:28:00,
2013-02-17 18:33:00,55.8,27.8,30.30,NNW,338,6.9,6.9,34,0.00,CLR,,0.00,WeatherDisplay:10.37,2013-02-17 23:33:00,
2013-02-17 18:38:00,55.6,27.6,30.30,North,0,5.8,5.8,34,0.00,CLR,,0.00,WeatherDisplay:10.37,2013-02-17 23:38:00,
2013-02-17 18:44:00,55.4,28.2,30.30,North,0,5.8,5.8,35,0.00,CLR,,0.00,WeatherDisplay:10.37,2013-02-17 23:44:00,
2013-02-17 18:49:00,55.0,27.9,30.30,North,0,13.8,13.8,35,0.00,CLR,,0.00,WeatherDisplay:10.37,2013-02-17 23:49:00,
2013-02-17 18:54:00,55.0,27.9,30.30,NNW,338,10.0,10.0,35,0.00,CLR,,0.00,WeatherDisplay:10.37,2013-02-17 23:54:00,
2013-02-17 18:59:00,54.9,27.7,30.30,North,0,5.8,5.8,35,0.01,RA,,0.01,WeatherDisplay:10.37,2013-02-17 23:59:00,
2013-02-17 19:04:00,54.5,27.4,30.30,North,0,6.9,6.9,35,0.01,RA,,0.01,WeatherDisplay:10.37,2013-02-18 00:04:00,
2013-02-17 19:09:00,54.5,27.4,30.30,NW,315,4.6,4.6,35,0.01,,,0.01,WeatherDisplay:10.37,2013-02-18 00:09:00,
2013-02-17 19:14:00,54.5,27.4,30.30,NW,315,5.8,5.8,35,0.01,CLR,,0.01,WeatherDisplay:10.37,2013-02-18 00:14:00,
2013-02-17 19:19:00,54.3,27.2,30.33,North,0,9.2,9.2,35,0.01,CLR,,0.01,WeatherDisplay:10.37,2013-02-18 00:19:00,
2013-02-17 19:25:00,54.1,27.1,30.33,NNW,338,8.1,8.1,35,0.01,CLR,,0.01,WeatherDisplay:10.37,2013-02-18 00:25:00,
2013-02-17 19:30:00,54.1,27.7,30.33,North,0,5.9,6.0,36,0.01,CLR,,0.01,WeatherDisplay:10.37,2013-02-18 00:30:00,
2013-02-17 19:35:00,54.0,27.6,30.30,NNW,340,3.0,9.0,36,0.00,,,0.01,WeatherDisplay:10.37,2013-02-18 00:35:00,
2013-02-17 19:40:00,53.8,27.4,30.30,North,0,6.9,6.9,36,0.01,CLR,,0.01,WeatherDisplay:10.37,2013-02-18 00:40:00,
2013-02-17 19:45:00,53.6,27.3,30.30,NNW,327,3.0,7.0,36,0.00,,,0.01,WeatherDisplay:10.37,2013-02-18 00:45:00,
2013-02-17 19:50:00,53.4,27.8,30.33,NNW,338,5.0,9.0,37,0.00,,,0.01,WeatherDisplay:10.37,2013-02-18 00:50:00,
2013-02-17 19:55:00,53.4,28.4,30.33,North,0,4.9,4.9,38,0.01,CLR,,0.01,WeatherDisplay:10.37,2013-02-18 00:55:00,
2013-02-17 20:01:00,53.4,28.4,30.33,NNE,22,8.1,8.1,38,0.00,CLR,,0.01,WeatherDisplay:10.37,2013-02-18 01:01:00,
2013-02-17 20:06:00,53.2,28.3,30.30,NNW,338,4.6,4.6,38,0.00,CLR,,0.01,WeatherDisplay:10.37,2013-02-18 01:06:00,
2013-02-17 20:11:00,53.1,28.7,30.30,NW,315,5.9,5.9,39,0.00,CLR,,0.01,WeatherDisplay:10.37,2013-02-18 01:11:00,
2013-02-17 20:16:00,52.9,28.6,30.30,NW,315,9.2,9.2,39,0.00,CLR,,0.01,WeatherDisplay:10.37,2013-02-18 01:16:00,
2013-02-17 20:21:00,52.9,28.6,30.33,NW,315,8.1,8.1,39,0.00,CLR,,0.01,WeatherDisplay:10.37,2013-02-18 01:21:00,
2013-02-17 20:26:00,52.7,28.4,30.33,North,0,6.9,6.9,39,0.00,CLR,,0.01,WeatherDisplay:10.37,2013-02-18 01:26:00,
2013-02-17 20:31:00,52.7,29.0,30.33,NW,315,5.8,5.8,40,0.00,CLR,,0.01,WeatherDisplay:10.37,2013-02-18 01:31:00,
2013-02-17 20:36:00,52.5,29.5,30.33,NW,315,5.8,5.8,41,0.00,CLR,,0.01,WeatherDisplay:10.37,2013-02-18 01:36:00,
2013-02-17 20:41:00,52.3,29.3,30.33,WNW,292,8.1,8.1,41,0.00,CLR,,0.01,WeatherDisplay:10.37,2013-02-18 01:41:00,
2013-02-17 20:46:00,52.3,29.9,30.33,NNW,338,5.9,5.9,42,0.00,CLR,,0.01,WeatherDisplay:10.37,2013-02-18 01:46:00,
2013-02-17 20:52:00,52.3,29.9,30.33,WNW,292,8.1,8.1,42,0.00,CLR,,0.01,WeatherDisplay:10.37,2013-02-18 01:52:00,
2013-02-17 20:57:00,52.3,29.9,30.33,WNW,292,6.9,6.9,42,0.00,CLR,,0.01,WeatherDisplay:10.37,2013-02-18 01:57:00,
2013-02-17 21:02:00,52.2,30.3,30.33,NW,315,6.9,6.9,43,0.00,CLR,,0.01,WeatherDisplay:10.37,2013-02-18 02:02:00,
2013-02-17 21:07:00,52.2,30.3,30.33,NW,315,6.9,6.9,43,0.00,CLR,,0.01,WeatherDisplay:10.37,2013-02-18 02:07:00,
2013-02-17 21:13:00,52.0,30.2,30.33,NNE,22,8.1,8.1,43,0.00,CLR,,0.01,WeatherDisplay:10.37,2013-02-18 02:13:00,
2013-02-17 21:18:00,52.0,30.2,30.30,WNW,292,6.9,6.9,43,0.00,CLR,,0.01,WeatherDisplay:10.37,2013-02-18 02:18:00,
2013-02-17 21:23:00,52.0,30.2,30.30,WNW,292,8.1,8.1,43,0.00,CLR,,0.01,WeatherDisplay:10.37,2013-02-18 02:23:00,
2013-02-17 21:28:00,51.8,30.6,30.30,NW,315,5.8,5.8,44,0.00,CLR,,0.01,WeatherDisplay:10.37,2013-02-18 02:28:00,
2013-02-17 21:33:00,51.8,30.6,30.33,NW,315,8.1,8.1,44,0.00,CLR,,0.01,WeatherDisplay:10.37,2013-02-18 02:33:00,
2013-02-17 21:38:00,51.8,30.6,30.33,NW,315,8.1,8.1,44,0.00,CLR,,0.01,WeatherDisplay:10.37,2013-02-18 02:38:00,
2013-02-17 21:44:00,51.6,30.9,30.33,NW,315,8.1,8.1,45,0.00,CLR,,0.01,WeatherDisplay:10.37,2013-02-18 02:44:00,
2013-02-17 21:49:00,51.6,30.9,30.30,WNW,292,10.2,10.2,45,0.00,CLR,,0.01,WeatherDisplay:10.37,2013-02-18 02:49:00,
2013-02-17 21:54:00,51.6,30.9,30.30,WNW,292,9.2,9.2,45,0.00,CLR,,0.01,WeatherDisplay:10.37,2013-02-18 02:54:00,
2013-02-17 21:59:00,51.4,31.3,30.30,NW,315,6.4,6.4,46,0.00,CLR,,0.01,WeatherDisplay:10.37,2013-02-18 02:59:00,
2013-02-17 22:04:00,51.3,30.6,30.33,NW,315,9.0,9.0,45,0.00,CLR,,0.01,WeatherDisplay:10.37,2013-02-18 03:04:00,
2013-02-17 22:09:00,51.3,30.6,30.33,West,270,9.2,9.2,45,0.00,CLR,,0.01,WeatherDisplay:10.37,2013-02-18 03:09:00,
2013-02-17 22:14:00,51.3,30.6,30.33,NW,315,6.9,6.9,45,0.00,CLR,,0.01,WeatherDisplay:10.37,2013-02-18 03:14:00,
2013-02-17 22:19:00,51.1,31.0,30.33,NW,315,8.1,8.1,46,0.00,CLR,,0.01,WeatherDisplay:10.37,2013-02-18 03:19:00,
2013-02-17 22:24:00,51.1,31.0,30.33,WNW,292,8.7,8.7,46,0.00,CLR,,0.01,WeatherDisplay:10.37,2013-02-18 03:24:00,
2013-02-17 22:30:00,51.1,31.0,30.33,WNW,292,9.7,9.7,46,0.00,CLR,,0.01,WeatherDisplay:10.37,2013-02-18 03:30:00,
2013-02-17 22:35:00,51.1,31.0,30.33,NW,315,9.2,9.2,46,0.00,CLR,,0.01,WeatherDisplay:10.37,2013-02-18 03:35:00,
2013-02-17 22:40:00,51.1,31.0,30.33,NW,315,9.2,9.2,46,0.00,CLR,,0.01,WeatherDisplay:10.37,2013-02-18 03:40:00,
2013-02-17 22:45:00,51.1,31.0,30.33,NW,315,6.9,6.9,46,0.00,CLR,,0.01,WeatherDisplay:10.37,2013-02-18 03:45:00,
2013-02-17 22:50:00,51.1,31.5,30.33,NNW,338,6.9,6.9,47,0.00,CLR,,0.01,WeatherDisplay:10.37,2013-02-18 03:50:00,
2013-02-17 22:55:00,50.9,30.8,30.33,West,270,5.9,5.9,46,0.00,CLR,,0.01,WeatherDisplay:10.37,2013-02-18 03:55:00,
2013-02-17 23:00:00,50.7,31.2,30.33,NW,315,7.1,7.1,47,0.00,CLR,,0.01,WeatherDisplay:10.37,2013-02-18 04:00:00,
2013-02-17 23:05:00,50.7,30.7,30.33,NW,315,8.1,8.1,46,0.00,CLR,,0.01,WeatherDisplay:10.37,2013-02-18 04:05:00,
2013-02-17 23:10:00,50.5,30.5,30.33,West,270,7.4,7.4,46,0.00,CLR,,0.01,WeatherDisplay:10.37,2013-02-18 04:10:00,
2013-02-17 23:15:00,50.7,31.2,30.33,NW,315,6.9,6.9,47,0.00,CLR,,0.01,WeatherDisplay:10.37,2013-02-18 04:15:00,
2013-02-17 23:20:00,50.5,31.0,30.30,West,270,9.8,9.8,47,0.00,CLR,,0.01,WeatherDisplay:10.37,2013-02-18 04:20:00,
2013-02-17 23:25:00,50.4,30.9,30.30,NW,315,6.9,6.9,47,0.00,CLR,,0.01,WeatherDisplay:10.37,2013-02-18 04:25:00,
2013-02-17 23:31:00,50.4,30.9,30.30,West,270,6.9,6.9,47,0.00,CLR,,0.01,WeatherDisplay:10.37,2013-02-18 04:31:00,
2013-02-17 23:36:00,50.4,30.9,30.33,West,270,8.1,8.1,47,0.00,CLR,,0.01,WeatherDisplay:10.37,2013-02-18 04:36:00,
2013-02-17 23:41:00,50.2,30.7,30.33,WNW,292,8.1,8.1,47,0.00,CLR,,0.01,WeatherDisplay:10.37,2013-02-18 04:41:00,
2013-02-17 23:46:00,50.2,30.7,30.30,NW,315,8.1,8.1,47,0.00,CLR,,0.01,WeatherDisplay:10.37,2013-02-18 04:46:00,
2013-02-17 23:51:00,50.2,30.7,30.30,NW,315,12.7,12.7,47,0.00,CLR,,0.01,WeatherDisplay:10.37,2013-02-18 04:51:00,
2013-02-17 23:57:00,50.4,30.9,30.30,NW,315,8.1,8.1,47,0.00,CLR,,0.01,WeatherDisplay:10.37,2013-02-18 04:57:00,